Theta_e
346 346 345 346 346 346 345 346 346 346 346 347 347 348 348 348 348 349 349 347 347 348 348 348 348 347 346 347 346 345 344 344 345 345 345 344 344 345 344 344 342 341 339 339 341 343 344 345 344 344 344 344 343 343 342 340 339 338 338 337 337 336
344 344 345 345 346 346 346 346 347 347 348 348 347 347 348 349 349 349 348 347 348 347 347 348 347 346 347 347 346 346 345 345 344 344 344 344 345 344 344 343 342 340 339 339 337 344 346 345 344 344 344 343 343 341 342 341 340 338 338 339 338 337
344 344 344 345 345 346 347 347 347 348 348 348 348 348 348 347 347 346 346 345 346 346 346 347 347 346 346 345 346 346 345 345 345 345 345 345 345 344 343 342 341 339 337 336 340 341 344 345 345 344 343 344 342 341 341 340 339 340 338 338 338 337
343 343 344 344 345 346 346 347 346 346 347 347 347 347 346 346 346 346 345 345 346 344 345 347 345 346 346 347 346 345 344 345 344 344 342 342 342 341 340 340 339 337 338 341 341 339 340 343 345 346 346 343 341 341 340 340 340 340 339 336 336 337
342 343 344 344 344 344 346 346 345 346 346 346 345 345 345 345 346 345 345 345 346 346 346 346 347 348 347 348 346 346 346 345 345 344 341 342 342 342 343 343 343 340 342 342 340 340 340 341 343 343 342 342 341 341 340 340 340 339 339 339 338 337
343 342 344 344 344 345 344 344 344 345 344 344 344 345 345 345 346 346 345 345 346 346 346 346 346 346 346 347 346 345 345 344 344 343 342 343 341 340 342 342 342 342 341 343 342 341 339 339 339 340 340 341 341 341 340 341 339 340 340 339 339 337
342 342 342 344 345 344 344 344 344 345 343 343 345 344 344 345 345 345 346 346 345 345 346 349 348 346 345 345 345 345 345 345 344 344 344 342 342 342 342 342 342 343 343 343 342 341 339 339 339 338 339 338 339 340 341 340 340 340 340 339 340 337
342 342 341 345 344 343 344 344 345 345 344 345 345 345 345 345 345 346 346 347 346 347 346 345 345 345 345 345 345 345 345 344 344 344 344 344 343 342 341 342 343 341 340 341 341 343 342 341 341 342 340 340 340 341 341 340 341 341 340 341 339 338
342 341 342 343 342 344 345 345 345 345 344 345 345 344 345 344 345 345 345 345 345 346 345 344 344 344 345 345 346 345 344 344 344 344 343 344 344 343 342 341 341 339 340 339 340 342 341 341 343 343 341 340 342 342 342 341 341 340 339 339 340 338
341 341 341 342 341 342 343 342 344 344 345 345 344 345 344 344 344 344 346 344 345 345 344 344 344 344 343 343 344 344 345 345 344 343 343 343 343 343 342 342 341 339 336 337 337 340 340 340 340 342 341 341 342 343 342 341 340 339 340 340 341 340
341 342 342 340 341 342 342 342 342 344 344 344 345 345 345 345 345 346 345 345 345 345 344 344 344 343 342 342 342 341 342 343 343 343 343 343 345 344 343 342 342 341 340 338 339 339 339 339 339 338 342 339 342 342 342 342 341 341 340 340 340 341
342 343 342 341 342 340 342 342 343 344 344 344 344 345 345 345 344 343 343 343 344 344 344 344 343 342 342 342 342 341 341 342 343 343 342 342 342 343 343 342 342 343 344 343 343 342 342 339 338 337 339 341 342 341 341 341 341 341 340 341 340 340
342 343 343 342 342 341 342 342 343 343 344 344 344 345 344 344 344 343 342 343 343 343 342 342 342 341 340 341 341 341 342 342 342 343 343 344 344 343 343 342 342 342 343 343 343 343 341 342 339 339 341 341 341 340 341 341 341 341 340 340 340 339
342 342 342 342 341 341 341 342 343 344 344 343 345 346 344 343 344 343 343 343 343 343 342 343 341 341 340 339 339 339 340 341 343 343 345 344 343 343 342 342 341 341 340 341 341 341 342 339 339 340 341 342 342 342 342 340 340 340 340 340 340 340
342 341 341 340 340 340 340 341 342 342 344 344 345 344 343 342 342 342 343 343 342 342 342 342 341 340 340 339 338 338 339 340 341 342 343 343 342 343 342 341 340 340 341 341 341 341 340 340 340 340 341 343 342 342 342 341 341 341 339 340 340 340
341 340 339 339 340 341 341 342 343 343 344 343 343 341 341 341 340 342 343 342 342 341 341 341 340 339 338 338 337 337 338 340 340 342 342 342 341 340 339 339 340 339 337 338 339 340 341 339 339 339 340 341 341 341 340 341 341 340 340 340 339 339
339 339 339 340 341 341 342 342 343 344 344 344 342 339 341 340 340 340 341 340 341 341 341 340 340 339 340 339 338 337 339 340 341 341 342 341 341 340 338 337 339 339 338 336 336 336 338 339 338 339 339 339 339 339 340 340 341 341 341 340 340 340
341 341 341 341 342 343 344 344 345 343 343 342 340 339 339 340 338 339 340 341 340 341 341 340 341 340 342 341 341 341 341 342 342 342 341 341 340 340 340 338 336 339 338 336 335 335 335 336 337 336 337 338 338 338 338 339 340 340 339 339 340 339
341 343 343 343 343 344 345 344 343 342 341 341 341 340 340 339 339 340 339 339 339 339 339 340 340 340 340 340 340 339 340 341 341 342 340 339 338 339 338 338 336 336 338 337 335 335 334 334 333 333 334 335 337 337 338 338 338 339 338 338 338 338
343 345 344 343 344 343 343 342 341 342 340 339 339 337 337 337 339 339 338 338 337 337 338 339 339 340 340 340 339 339 339 339 339 339 338 337 337 337 336 336 336 335 334 335 336 335 335 333 332 332 331 333 336 336 337 337 338 338 338 338 338 338
341 344 343 341 342 342 341 339 339 338 336 336 335 335 335 335 336 336 337 337 336 336 337 338 338 338 338 338 338 339 337 337 337 337 336 335 335 335 335 335 334 334 332 332 333 334 335 334 331 329 332 333 333 337 337 336 336 337 337 337 338 336
340 341 341 342 341 340 341 340 339 336 335 335 335 333 332 333 335 336 336 336 336 336 336 337 337 336 336 337 336 335 335 334 334 334 334 334 334 334 333 333 333 332 333 332 331 333 334 333 329 327 324 326 330 332 336 335 334 335 336 337 337 336
338 339 340 341 341 339 339 339 339 336 334 332 335 334 333 333 334 333 334 335 335 335 335 335 336 336 336 336 336 336 335 335 335 335 334 333 333 333 333 332 332 330 330 333 332 334 334 334 327 330 331 326 323 323 329 331 333 333 334 335 335 335
335 337 338 339 338 339 338 339 338 336 336 334 331 332 332 333 333 333 332 334 334 334 333 333 334 335 335 336 336 335 336 336 335 335 334 332 331 331 332 332 332 331 330 328 329 330 335 335 334 328 321 321 322 322 318 323 327 331 336 335 336 333
333 335 336 337 338 338 337 336 335 334 334 332 332 331 329 328 330 331 331 331 331 332 331 331 332 333 334 334 335 335 335 335 335 335 334 333 331 331 332 332 332 331 330 328 326 329 332 336 334 336 325 322 321 319 319 322 325 326 333 332 335 335
331 331 333 335 337 338 338 337 336 333 330 329 326 325 324 324 325 326 326 329 329 328 328 329 329 330 331 332 331 332 333 332 332 332 332 332 331 332 332 332 332 332 331 331 329 328 329 334 335 334 334 331 328 319 318 323 324 318 330 333 333 334
328 328 330 332 334 336 334 333 332 330 329 327 323 323 325 325 325 325 327 327 326 326 324 325 326 327 327 328 328 328 329 329 327 327 327 326 325 325 327 330 331 332 332 332 332 327 327 328 331 333 334 333 333 334 332 324 319 321 317 326 331 332
325 325 327 330 330 332 331 331 330 328 326 324 323 321 322 323 325 325 324 324 325 323 322 320 319 319 321 322 322 323 324 323 322 323 323 321 321 322 323 325 327 328 331 331 331 328 327 328 325 326 332 332 331 332 332 332 329 323 319 316 321 330
323 324 324 326 326 327 328 328 328 327 324 323 323 322 321 321 321 322 321 321 320 319 319 318 316 316 318 318 319 320 319 318 320 319 317 317 318 318 318 320 321 321 322 324 326 327 327 326 327 326 327 328 329 330 331 331 330 330 323 320 320 322
320 321 321 322 323 323 323 323 323 323 322 321 321 321 320 318 318 319 317 317 317 316 316 315 316 316 316 317 317 317 317 316 317 317 316 314 315 316 316 317 318 319 320 320 321 321 320 324 326 327 328 326 325 326 326 326 328 327 326 323 318 319
317 318 319 320 320 319 320 320 319 319 318 318 318 317 316 315 315 315 315 314 314 314 314 314 315 314 314 315 315 315 314 313 313 314 312 313 313 313 314 315 317 317 317 317 318 318 318 321 323 323 324 325 323 323 320 321 323 325 323 320 320 321
316 317 317 318 318 317 317 317 317 316 315 315 315 314 313 312 312 312 312 312 312 312 312 312 312 311 311 312 313 311 311 310 309 309 309 309 309 309 310 312 313 314 314 315 315 314 315 316 317 318 320 323 324 325 324 324 324 324 322 322 322 320
314 315 315 316 315 316 315 315 315 314 314 314 313 312 311 310 311 310 310 310 310 309 309 309 308 309 309 310 310 308 308 307 307 307 308 307 307 308 308 310 310 310 310 311 312 311 311 312 313 314 315 318 320 321 322 325 325 324 324 324 322 320
313 314 314 314 314 313 313 314 314 313 313 312 311 311 310 309 309 309 309 308 308 307 307 307 307 307 308 309 309 308 307 307 306 306 307 306 306 307 307 307 308 307 307 307 308 308 308 309 309 311 311 312 315 316 318 322 323 324 323 322 321 321
312 313 313 313 313 312 312 312 312 312 312 311 310 309 308 309 308 308 308 307 307 307 306 306 306 307 308 308 307 307 306 306 305 306 306 305 305 306 306 306 307 307 307 306 306 306 306 306 306 306 307 308 310 312 315 318 320 322 322 322 322 321
312 312 312 312 311 311 311 311 311 310 310 310 310 309 308 308 307 307 307 306 306 306 306 306 306 306 307 307 306 305 305 305 305 305 305 305 304 304 305 305 305 305 305 306 305 306 305 306 306 306 306 307 307 308 311 313 315 317 317 318 319 322
311 311 311 311 311 311 310 309 309 309 309 309 308 307 306 307 307 307 307 306 305 305 306 306 305 306 306 306 305 305 304 304 304 304 304 304 303 304 304 304 304 304 303 304 305 305 305 305 306 306 306 306 305 306 308 310 311 312 314 316 317 319
Wind_Speed
8 8 8 8 8 8 9 10 9 10 10 10 10 10 9 9 8 9 9 9 7 6 5 4 4 5 4 5 4 4 5 5 5 5 6 6 6 7 8 7 8 8 6 5 6 7 7 9 10 10 10 10 10 6 3 3 4 3 3 4 4 2
8 8 8 6 6 6 7 8 7 8 7 8 8 8 6 6 6 7 8 6 5 4 3 3 3 3 2 2 3 4 4 4 4 5 5 5 5 5 6 7 8 6 4 4 3 4 6 8 9 9 9 9 6 3 4 3 3 3 3 3 4 5
8 8 8 7 6 6 7 6 6 6 6 7 7 6 6 5 4 5 5 4 3 3 3 2 2 2 1 2 4 6 4 4 6 6 7 7 7 8 7 7 8 5 4 1 3 3 3 5 6 8 8 6 3 3 3 3 3 3 3 2 3 8
8 8 7 6 6 6 6 6 5 5 6 6 5 5 5 4 4 4 4 3 3 3 2 1 2 2 2 2 2 2 5 5 5 5 7 3 3 5 4 5 6 3 1 1 3 3 3 3 4 4 4 3 3 3 4 4 4 3 2 4 3 9
7 7 7 6 6 6 6 5 5 5 5 5 5 5 4 4 4 4 3 3 3 3 2 2 1 2 3 2 2 1 1 3 3 3 4 3 3 3 2 2 2 2 1 1 2 3 2 2 2 2 2 2 3 3 4 4 4 3 3 4 4 8
7 7 6 6 6 6 6 5 5 5 5 4 5 5 5 4 4 3 2 2 1 2 1 1 2 2 3 3 3 3 2 2 2 3 3 2 2 2 2 2 2 2 2 1 1 1 2 2 2 1 1 2 2 3 4 4 4 4 4 4 4 9
7 6 6 6 6 6 5 5 4 5 5 5 4 4 4 4 3 2 2 1 1 0 1 1 2 3 3 3 3 2 2 2 2 3 3 3 2 1 2 2 1 1 1 1 2 2 2 2 0 0 1 2 3 3 4 4 4 4 4 4 5 10
7 6 6 5 6 5 5 5 5 5 4 4 3 3 3 3 3 2 2 1 1 1 1 2 2 3 3 2 3 3 2 2 2 2 3 4 2 2 1 1 2 1 0 1 1 2 1 2 2 1 2 2 3 4 4 4 4 5 4 4 5 8
7 7 6 6 6 5 4 4 4 4 4 4 3 2 2 3 2 2 2 1 1 1 1 2 2 3 3 3 3 3 3 3 3 3 3 3 3 3 2 1 2 2 1 1 1 1 1 2 2 2 2 2 3 3 4 5 5 5 5 5 5 6
7 7 6 6 5 5 5 4 4 3 3 3 2 2 2 1 1 1 1 1 1 2 2 3 3 3 3 4 4 4 3 4 4 3 4 4 3 2 2 2 2 2 3 2 3 1 2 2 2 2 2 2 3 4 3 4 5 5 5 6 6 6
7 7 6 6 6 5 4 4 3 3 3 2 2 2 1 1 0 0 1 1 2 2 3 3 4 3 3 3 3 3 3 4 4 4 3 3 3 3 2 2 3 3 3 3 3 3 3 4 4 4 2 3 3 3 4 4 4 5 6 6 6 6
6 6 6 6 5 5 4 4 3 3 3 3 2 1 1 0 1 1 2 2 2 3 3 3 3 3 3 3 2 2 2 3 3 3 3 3 3 3 4 3 3 3 3 3 3 3 3 4 5 5 3 3 3 4 4 4 5 5 6 6 6 6
5 5 6 6 5 5 4 3 3 2 3 2 2 1 1 2 2 3 2 2 3 3 3 3 4 4 3 3 2 2 2 2 2 1 1 3 4 3 3 3 4 3 3 3 4 4 4 4 5 5 4 4 4 5 4 4 4 5 6 6 6 6
5 5 5 4 4 4 3 3 2 2 2 2 1 1 3 3 3 3 3 4 4 5 4 4 4 4 3 3 2 2 2 1 2 2 3 4 4 4 4 4 4 4 4 4 5 5 4 6 6 5 4 4 4 5 4 5 5 5 5 6 6 6
4 5 4 4 4 4 3 3 3 2 2 2 2 3 3 4 4 4 4 4 5 5 5 4 4 4 3 3 3 3 2 3 3 4 4 4 4 5 5 5 5 5 5 4 4 4 5 6 6 6 5 4 5 5 5 6 6 6 6 6 6 6
5 5 5 4 4 4 4 4 3 3 3 4 4 4 4 4 4 4 5 5 6 5 5 5 5 4 3 3 3 3 3 3 4 3 3 2 2 3 5 4 4 4 5 5 5 5 4 6 6 8 7 5 5 5 6 6 7 7 6 5 6 7
5 6 5 5 5 4 4 4 4 4 5 6 5 4 4 4 4 4 4 4 5 5 5 5 5 4 3 3 3 3 3 3 3 4 3 2 2 3 4 4 4 4 4 5 6 7 6 6 7 8 7 8 8 8 7 7 7 6 5 6 7 7
5 5 4 4 5 5 5 5 5 5 6 7 6 5 4 4 4 4 4 4 5 5 5 6 6 5 5 5 5 5 4 4 4 4 3 3 3 3 4 4 6 5 5 6 6 7 7 7 7 8 8 8 8 8 9 10 10 8 7 7 7 8
7 6 5 5 5 5 5 5 5 6 7 8 7 6 5 5 5 5 4 5 5 5 5 5 6 6 5 6 5 5 5 5 4 3 3 3 4 4 4 4 5 6 5 5 6 7 7 8 8 9 9 9 9 10 9 9 10 10 10 10 10 9
6 5 5 5 4 5 4 5 6 7 8 8 7 6 6 6 5 6 5 5 4 4 4 4 5 5 5 4 4 4 5 5 5 4 5 5 5 6 7 7 7 7 7 6 5 5 6 6 7 8 9 9 9 10 10 9 10 11 10 10 9 9
5 5 5 4 4 4 5 7 8 8 8 7 6 7 7 6 6 6 7 7 6 4 5 5 5 5 5 4 4 4 4 5 5 5 5 5 6 6 6 6 6 5 6 7 6 5 6 6 8 7 7 9 9 8 9 10 10 10 10 9 8 9
5 5 5 5 5 5 5 6 7 7 7 6 6 7 7 7 7 7 8 8 7 7 6 6 6 6 6 5 5 5 5 5 5 4 5 5 5 6 6 6 6 6 5 7 6 5 6 6 5 6 9 9 8 8 7 7 8 9 10 9 8 9
6 6 6 6 6 6 6 6 7 6 6 7 8 8 8 7 8 8 9 9 8 8 7 7 6 6 5 5 5 6 6 5 6 5 6 6 6 7 6 7 7 6 6 6 6 4 5 4 6 8 8 7 6 9 4 6 5 7 7 7 8 9
7 6 6 7 8 9 9 10 10 9 8 7 7 8 8 8 8 9 10 9 8 8 8 8 7 7 6 7 7 6 6 5 5 5 5 5 6 6 6 6 7 7 6 6 6 6 5 5 4 7 7 5 8 6 8 5 8 7 6 7 7 8
7 8 7 7 8 9 9 9 8 8 7 7 6 6 7 8 7 8 8 9 8 9 9 9 8 9 8 7 7 6 6 5 5 6 5 5 6 6 6 6 7 7 8 7 8 6 7 5 4 3 5 6 5 4 6 9 11 10 3 4 6 7
7 6 6 5 4 4 5 5 4 4 4 4 6 6 8 7 6 7 7 7 8 9 9 9 9 9 9 8 8 8 8 8 8 7 7 7 7 7 7 8 7 7 8 8 7 8 9 6 5 6 6 5 4 7 10 11 11 7 6 8 8 7
7 6 6 6 4 5 7 7 8 8 7 6 7 6 6 6 6 6 6 7 7 8 9 9 9 9 9 9 8 8 8 8 8 7 6 6 6 6 6 7 8 8 9 8 8 8 8 8 8 4 3 6 7 9 9 7 7 10 12 7 7 8
7 8 7 6 7 6 7 7 8 8 8 7 7 7 6 6 6 6 7 7 6 7 9 9 9 10 10 10 9 8 8 8 7 7 6 6 7 7 6 7 7 8 8 9 9 8 9 8 7 8 5 6 7 8 10 9 9 9 11 13 12 8
9 9 8 9 8 9 7 6 6 6 8 7 6 5 5 5 5 5 6 6 7 7 8 9 10 10 10 10 10 9 9 8 9 8 6 6 6 7 9 8 8 8 7 7 7 9 10 10 10 10 10 9 8 8 8 9 9 9 9 10 13 13
11 8 7 9 10 11 9 7 7 8 9 7 5 4 5 5 5 5 7 7 7 7 7 7 8 10 11 10 10 9 8 9 9 8 7 6 7 8 8 9 8 7 7 8 6 6 6 7 7 8 10 11 11 10 10 9 5 6 8 8 11 13
9 7 9 10 11 11 9 9 8 9 9 8 7 6 6 7 6 7 7 8 7 7 8 9 9 9 11 10 10 9 9 8 8 7 8 8 8 7 6 7 7 8 8 8 7 8 7 7 6 6 8 8 9 9 10 11 11 9 8 8 10 13
10 10 10 10 11 10 9 9 10 10 10 9 8 7 8 8 8 8 8 7 6 7 8 8 9 9 11 11 9 9 9 9 9 9 9 7 7 7 7 6 7 7 8 8 8 8 8 8 9 8 8 7 7 7 10 10 9 8 7 9 10 13
11 10 10 11 11 11 10 10 9 10 9 8 9 9 8 9 8 8 7 8 8 8 8 9 10 10 11 11 9 9 9 9 8 8 8 8 8 9 8 6 7 8 9 9 8 9 8 9 9 9 9 8 8 8 8 9 10 9 9 9 9 12
12 10 10 10 10 11 11 10 10 9 8 7 8 9 8 8 8 7 7 8 9 8 9 10 10 10 10 10 9 9 9 9 9 9 9 9 9 8 9 7 7 8 10 8 9 10 9 10 9 10 10 9 9 9 9 9 10 10 10 10 10 11
12 10 10 10 10 11 9 10 9 9 8 7 8 9 8 8 8 9 9 10 9 9 9 9 10 9 9 9 9 9 10 9 9 9 9 9 8 8 9 7 7 8 8 8 9 10 9 11 10 12 11 9 10 9 9 10 9 8 9 9 10 11
11 10 10 10 10 10 10 9 11 11 10 9 9 9 9 9 10 10 10 10 11 10 10 9 9 8 9 9 9 9 9 10 10 10 10 10 10 9 9 8 7 8 9 9 10 11 10 10 11 12 11 12 10 9 9 10 10 10 9 9 10 11
11 10 10 10 10 10 10 11 11 11 10 11 11 12 10 11 11 11 11 11 11 11 10 9 8 7 8 9 9 9 9 10 11 10 10 10 10 10 9 8 8 9 9 11 10 10 10 10 11 11 11 12 11 11 10 10 10 10 10 10 9 10
Wind_Direction
127 130 131 132 134 133 133 139 138 128 120 116 110 111 112 116 121 109 101 90 96 76 69 65 55 53 71 61 57 81 67 70 61 62 62 61 64 61 71 72 85 88 89 82 82 91 105 140 147 150 151 154 154 175 164 165 166 163 175 158 179 155
133 132 132 132 136 134 136 139 135 139 137 132 127 124 129 117 108 105 91 95 77 78 68 70 54 48 32 56 85 50 75 59 53 50 57 61 67 63 64 69 87 89 82 84 111 130 127 132 144 149 155 153 178 174 171 178 187 175 176 178 187 143
131 136 136 135 136 134 137 136 136 137 132 131 126 124 114 99 97 83 80 81 79 69 67 57 55 35 37 43 36 33 45 56 41 39 35 39 41 45 51 49 73 85 76 119 146 115 135 143 144 154 154 175 194 185 172 188 199 206 193 171 211 154
139 141 140 137 132 130 135 140 138 138 130 121 109 105 96 103 96 85 95 84 82 77 74 72 47 43 147 69 81 76 54 58 55 44 16 13 29 47 37 69 66 87 150 141 107 123 131 143 147 165 178 187 195 184 191 193 212 209 215 181 215 169
144 146 139 135 131 130 131 134 128 128 118 112 116 112 106 104 90 89 88 105 111 119 127 132 73 29 27 46 35 35 45 22 13 9 6 10 6 6 355 33 96 119 59 52 80 92 106 123 138 162 175 193 196 198 210 208 223 226 211 197 205 182
146 145 139 134 135 134 135 133 135 125 118 115 121 119 119 111 106 88 90 103 123 135 116 57 45 30 24 8 9 21 25 28 13 7 9 354 22 355 351 17 42 77 87 79 70 71 91 94 123 137 171 197 216 216 230 230 226 227 226 217 197 198
144 142 138 139 134 129 133 135 126 127 125 125 134 132 124 121 118 124 124 134 220 77 16 18 9 24 25 8 6 11 18 10 10 5 19 0 352 1 347 7 27 74 135 142 128 121 140 136 111 163 192 212 228 241 246 248 239 237 231 222 213 199
141 139 143 138 124 127 136 144 142 133 129 130 135 130 128 121 122 122 131 143 5 349 341 1 353 2 20 358 353 4 4 351 4 15 26 5 357 4 5 4 351 347 297 154 145 149 147 157 179 214 239 232 221 235 245 258 257 249 243 230 232 201
143 141 142 137 133 132 138 143 131 125 132 135 129 121 115 131 133 126 144 168 246 290 314 319 341 354 343 350 349 343 341 353 353 12 356 17 7 2 4 354 343 325 319 287 221 181 184 180 191 198 235 251 250 242 240 246 251 245 242 241 231 213
144 146 145 142 140 143 147 144 140 128 129 121 118 133 164 170 155 169 179 228 252 279 309 331 346 348 339 348 351 346 340 347 2 7 349 354 8 344 352 343 322 318 311 288 274 278 277 244 223 202 217 248 243 249 238 236 237 237 239 232 231 230
148 151 147 142 146 141 145 138 132 134 128 111 118 139 165 173 193 251 288 283 295 309 324 328 339 345 343 351 15 8 7 354 7 12 357 348 345 335 326 316 322 324 321 316 311 311 304 300 291 266 226 262 246 250 242 226 227 228 231 232 232 231
148 148 143 144 146 143 143 132 131 128 123 121 143 134 106 73 50 34 0 328 322 328 332 333 339 347 343 349 17 28 18 3 16 12 19 352 333 332 315 312 308 298 305 305 309 305 305 295 294 288 285 273 246 247 242 227 226 220 225 226 226 225
146 147 143 148 142 142 144 138 139 127 121 136 137 125 40 40 32 34 9 342 342 346 346 350 355 357 350 344 355 12 26 16 35 54 339 345 352 341 316 303 290 286 281 289 289 292 294 290 282 285 293 283 273 261 252 239 230 220 218 219 221 224
149 147 149 138 131 133 135 138 139 134 129 146 126 62 37 33 23 22 358 2 359 1 358 10 358 355 354 350 357 10 11 25 9 10 358 7 354 346 334 323 315 307 302 291 288 287 292 286 287 287 285 287 277 277 267 251 239 225 215 219 218 220
145 142 138 128 125 122 132 139 140 138 137 114 79 57 49 41 32 11 2 2 7 3 1 6 4 354 356 356 2 27 28 24 1 9 12 14 349 345 338 326 328 320 314 304 298 298 294 290 290 286 282 271 262 261 254 252 242 233 223 213 214 219
138 129 121 121 118 123 128 129 122 117 98 79 70 63 54 48 40 355 3 4 5 8 5 13 14 15 19 30 33 35 36 24 30 24 21 16 337 336 332 324 328 326 321 310 302 297 296 293 287 283 281 272 268 258 260 251 243 239 238 224 216 215
129 124 117 121 122 117 117 113 110 84 69 68 62 56 50 41 38 28 13 17 14 19 23 23 24 41 52 55 54 46 44 33 26 11 351 8 330 345 328 327 320 320 316 313 308 305 301 292 292 289 287 286 282 273 261 258 254 246 237 235 227 219
122 117 122 120 118 120 112 111 90 71 65 66 62 54 45 48 53 47 49 46 36 32 31 31 37 44 51 53 54 52 49 40 35 31 16 7 11 349 343 329 327 322 324 320 312 309 306 302 300 298 295 292 289 279 274 269 266 257 247 247 240 223
109 113 115 115 110 105 104 94 91 84 75 76 80 72 80 80 81 77 66 59 52 47 43 41 44 47 49 44 41 38 36 26 17 11 9 359 354 346 332 324 309 315 312 299 301 308 306 304 301 298 295 294 291 282 276 271 269 265 261 256 255 249
111 115 112 114 121 112 96 74 76 91 79 72 68 68 67 71 75 76 72 70 62 53 48 43 49 48 44 35 30 37 31 23 15 355 0 0 358 353 347 335 333 334 325 318 301 301 309 305 302 299 294 288 284 283 276 273 268 266 263 256 252 252
110 126 121 118 102 88 93 98 82 77 79 81 79 73 68 61 66 73 80 80 71 56 58 61 55 47 50 47 43 38 31 27 18 17 8 11 2 351 345 341 340 334 326 320 317 320 315 313 306 298 295 296 294 281 277 268 266 265 263 262 254 252
101 98 104 102 91 83 73 77 94 94 95 92 98 82 75 67 71 75 75 74 72 70 64 65 65 66 65 61 60 59 52 48 40 33 27 19 9 356 357 355 348 333 334 317 314 322 316 326 309 319 319 314 302 298 275 273 266 264 264 265 262 254
91 102 100 105 105 96 93 92 102 107 99 84 75 88 89 82 77 75 73 72 71 67 62 57 61 67 68 62 62 60 57 53 46 35 27 18 8 8 2 2 352 346 337 329 318 305 310 338 319 322 301 292 308 321 309 267 248 256 266 268 266 257
86 91 94 93 102 106 103 99 96 101 95 93 95 92 87 81 78 76 71 69 68 67 64 61 53 53 54 51 48 49 54 54 56 49 27 15 12 11 8 3 355 347 335 326 336 321 321 329 313 319 321 327 306 307 305 327 332 312 266 254 247 259
79 85 90 100 112 117 116 111 109 104 103 100 90 92 88 73 69 71 72 63 59 57 57 54 46 46 47 46 44 42 41 41 41 43 27 13 8 3 7 355 1 344 343 336 326 317 309 322 316 259 296 317 321 294 310 315 323 304 286 272 247 240
72 62 72 84 100 109 109 114 117 108 82 79 70 58 61 66 67 65 68 69 61 55 53 49 50 45 41 42 39 34 38 44 32 29 34 27 10 5 8 5 0 347 338 331 321 314 314 316 308 291 253 247 267 297 307 311 313 301 305 285 283 275
68 66 58 57 64 90 86 82 86 87 90 84 90 79 78 78 78 77 75 69 62 53 48 46 42 38 35 34 36 31 31 39 40 32 24 28 18 6 357 10 351 353 341 329 329 319 318 316 317 301 283 276 264 252 252 285 307 309 306 312 292 288
65 61 49 55 57 56 86 92 97 95 92 89 86 89 79 75 70 72 69 61 60 56 47 43 38 34 34 31 29 25 29 32 41 36 24 29 11 6 2 10 4 360 351 340 340 335 332 331 329 318 307 292 285 286 279 274 270 283 290 293 289 280
67 63 54 52 60 55 58 66 82 96 95 88 85 79 75 63 60 59 62 56 52 49 49 45 41 35 32 33 32 31 32 25 31 31 23 18 9 11 14 10 11 3 2 346 356 350 342 343 339 331 330 322 316 301 286 273 284 274 283 284 290 302
64 61 60 59 61 59 55 56 63 69 83 86 84 80 64 60 53 49 59 52 50 47 42 41 39 36 34 35 35 32 28 25 26 23 19 15 7 7 7 5 359 352 352 351 354 352 343 329 337 334 330 322 317 318 308 306 304 310 290 275 289 299
65 69 64 63 63 64 62 62 68 68 70 73 68 63 64 54 47 46 47 45 44 43 39 36 33 34 31 31 34 31 26 24 23 19 15 14 11 2 356 351 347 347 350 351 348 342 335 332 333 327 320 322 315 317 317 308 308 308 305 300 296 291
68 63 63 63 64 62 64 65 68 68 67 64 63 63 60 54 45 47 43 42 42 43 38 35 33 34 30 29 31 29 25 24 25 19 19 11 8 358 352 344 351 351 345 343 344 343 338 336 336 325 317 317 312 310 307 309 315 312 308 301 301 299
72 65 64 65 66 66 66 64 66 70 71 68 66 66 63 58 47 47 43 42 40 42 38 36 34 35 33 32 30 28 26 25 22 20 15 14 9 5 359 356 0 358 353 350 349 344 334 334 330 322 321 320 312 308 306 313 311 306 301 295 291 293
78 73 73 70 72 72 69 70 70 71 71 70 70 65 61 60 54 53 51 50 47 45 43 41 37 38 34 34 35 31 28 26 23 19 16 13 10 6 4 1 6 7 4 1 354 348 341 338 332 332 331 321 318 315 310 309 310 308 307 309 302 300
84 79 78 78 76 77 74 70 70 70 68 71 70 70 65 61 60 60 58 58 54 50 48 44 41 40 34 33 31 29 28 25 21 17 15 12 7 6 6 4 10 7 9 5 358 355 350 346 343 341 336 331 321 314 314 314 310 311 323 320 311 308
88 87 84 82 78 78 77 74 71 70 69 70 73 74 75 71 69 65 65 63 59 56 54 53 50 41 33 33 31 29 27 26 20 18 15 12 9 8 5 7 8 8 6 5 354 357 355 350 347 343 340 338 331 325 321 319 318 316 315 312 310 310
88 84 82 82 82 80 80 78 73 73 73 73 74 75 75 74 72 69 68 66 64 61 58 54 50 36 35 33 32 28 27 22 21 17 14 12 11 10 8 11 9 7 7 0 358 356 351 350 347 346 345 344 338 331 330 328 323 322 316 311 314 316